www.pogodaiklimat.ru

Погода и климат >> Архив погоды >> Украина >> Измаил


АРХИВ ПОГОДЫ в Измаиле

Время (UTC), дата Ветер
(напр.,м/с)
 
Видим.   Явления Облачность Т
(С)
Тd
(С)
f
(%)
Тe
(С)
Тes
(С)
Комфортность P
(гПа)
Po
(гПа)
Тmin
(С)
Tmax
(С)
R
(мм)
R24
(мм)
S
(см)
03 12.08 штиль 0 10 км ясно +18.6 +12.8 69 +19 +19 1018.0 1014.4
06 12.08 штиль 0 20 км ясно +26.8 +14.2 46 +29 +37 жарко 1018.0 1014.5 +18.5
09 12.08 Ю 2 20 км ясно +31.9 +13.6 33 +33 +48 жарко 1018.0 1014.6
12 12.08 Ю 2 20 км ясно +34.1 +13.5 29 +35 +48 очень
жарко
1017.0 1013.6
15 12.08 Ю 3 20 км ясно +32.6 +17.2 40 +36 +39 очень
душно
1016.0 1012.6
18 12.08 Ю 3 10 км ясно +26.6 +17.1 56 +31 +31 душно 1016.0 1012.6 +34.7
21 12.08 штиль 0 10 км ясно +23.8 +15.8 61 +27 +27 жарко 1017.0 1013.5
00 13.08 штиль 0 10 км ясно +20.2 +15.0 72 +22 +22 комфорт 1016.0 1012.5
03 13.08 штиль 0 10 км ясно +20.8 +15.8 73 +24 +24 комфорт 1016.0 1012.5
06 13.08 Ю 1 20 км ясно +26.0 +14.1 48 +28 +35 жарко 1016.0 1012.5 +19.7
09 13.08 Ю 2 20 км ясно +31.0 +15.8 40 +34 +49 душно 1016.0 1012.6
12 13.08 Ю 3 20 км ясно +32.7 +16.1 37 +35 +46 душно 1015.0 1011.6
15 13.08 ЮВ 4 20 км ясно +30.9 +17.2 44 +35 +37 очень
душно
1014.0 1010.6
18 13.08 ЮВ 2 10 км ясно +25.3 +17.7 63 +30 +30 душно 1014.0 1010.5 +33.3
21 13.08 штиль 0 10 км ясно +20.6 +16.4 77 +24 +24 комфорт 1014.0 1010.5
00 14.08 штиль 0 10 км ясно +18.1 +15.4 84 +18 +18 1013.0 1009.5
03 14.08 С 1 10 км ясно +16.8 +13.1 79 +18 +18 1012.0 1008.4
06 14.08 СВ 2 20 км 1/0
[Ac trans]
+24.6 +17.3 64 +29 +34 душно 1012.0 1008.5 +16.6
09 14.08 В 4 20 км 1/1 1000 м
[Cu hum]
+29.4 +15.1 42 +32 +42 душно 1011.0 1007.6
12 14.08 ЮВ 2 20 км 1/1 1000 м
[Cu hum]
+31.0 +16.2 41 +34 +47 душно 1009.0 1005.6
15 14.08 ЮВ 2 20 км ясно +31.2 +16.7 42 +35 +37 очень
душно
1008.0 1004.6
18 14.08 ЮВ 2 10 км ясно +25.9 +18.0 62 +30 +30 душно 1008.0 1004.6 +31.8
21 14.08 штиль 0 10 км 3/0
[Ci fib]
+20.4 +15.6 74 +23 +23 комфорт 1008.0 1004.5
00 15.08 штиль 0 10 км 3/0
[Ci fib]
+18.6 +15.5 82 +19 +19 1008.0 1004.5
03 15.08 СЗ 2 10 км 4/0
[Ac trans]
+19.7 +15.8 78 +22 +22 комфорт 1009.0 1005.5
06 15.08 С 7 20 км ясно +20.6 +13.3 63 +23 +24 комфорт 1010.0 1006.5 +18.4
09 15.08 С 7 20 км 3/0
[Ac trans]
+25.0 +13.2 48 +27 +30 жарко 1010.0 1006.6
12 15.08 С 7 20 км 8/0
[Ac trans Ci fib]
+27.2 +12.8 41 +29 +29 жарко 1010.0 1006.6
15 15.08 С 6 20 км 4/0
[Ac trans Ci fib]
+24.0 +11.3 45 +25 +26 комфорт 1011.0 1007.5
18 15.08 СЗ 6 10 км 1/1 1000 м
[Sc]
+18.8 +10.9 60 +19 +19 1012.0 1008.5 +29.0
21 15.08 С 3 10 км 4/0
[Ac trans Ci fib]
+17.5 +10.6 64 +18 +18 1014.0 1010.4
00 16.08 С 2 10 км 4/0
[Ci fib]
+16.6 +10.2 66 +17 +17 1013.0 1009.4
03 16.08 СЗ 2 10 км 9/5 1000 м
[Sc Ac trans]
+16.0 +9.6 66 +16 +16 1013.0 1009.4
06 16.08 СЗ 5 20 км 9/3 1000 м
[Sc Ac trans Ci fib]
+18.5 +11.1 62 +19 +19 1013.0 1009.5 +15.9
09 16.08 СЗ 5 20 км 5/0
[Ac trans Ci fib]
+22.9 +12.2 51 +26 +29 жарко 1013.0 1009.5
12 16.08 С 4 20 км 3/0
[Ci fib]
+27.2 +10.8 36 +28 +34 жарко 1013.0 1009.6
15 16.08 С 5 20 км 8/3 1000 м
[Sc Ac trans Ci fib]
+26.9 +9.3 33 +27 +27 жарко 1012.0 1008.6
18 16.08 СЗ 4 10 км 4/0
[Ac trans Ci fib]
+23.2 +10.6 45 +25 +25 комфорт 1012.0 1008.5 +28.2
21 16.08 С 2 10 км ясно +20.8 +9.1 47 +23 +23 комфорт 1014.0 1010.5
00 17.08 С 2 10 км 4/0
[Ac trans]
+19.0 +8.6 51 +20 +20 1014.0 1010.5
03 17.08 С 2 10 км ясно +17.2 +7.3 52 +18 +18 1014.0 1010.4
06 17.08 С 2 20 км 4/0
[Ac trans Ci fib]
+20.0 +9.3 50 +22 +25 комфорт 1015.0 1011.5 +16.3
09 17.08 СЗ 3 20 км 5/1 1000 м
[Cu hum Ac trans Ci fib]
+24.4 +8.4 36 +25 +30 комфорт 1015.0 1011.5
12 17.08 СЗ 6 20 км 8/4 1000 м
[Cu med, cong Ci fib]
+26.5 +8.0 31 +26 +26 жарко 1014.0 1010.6
15 17.08 СЗ 7 20 км 6/6 1000 м
[Cu hum]
+27.3 +7.7 29 +27 +27 жарко 1014.0 1010.6
18 17.08 С 2 10 км 4/0
[Ac trans]
+22.6 +7.2 37 +23 +23 комфорт 1014.0 1010.5 +28.5
21 17.08 СЗ 2 10 км ясно +19.7 +8.1 47 +21 +21 комфорт 1015.0 1011.5
00 18.08 СЗ 2 10 км ясно +17.5 +8.1 54 +18 +18 1015.0 1011.4
03 18.08 СЗ 1 10 км ясно +16.1 +8.6 61 +17 +17 1015.0 1011.4
06 18.08 С 2 20 км ясно +22.0 +11.1 50 +24 +29 комфорт 1016.0 1012.5 +15.5
09 18.08 С 4 20 км 4/4 1000 м
[Cu hum]
+25.5 +8.9 35 +26 +33 жарко 1016.0 1012.5
12 18.08 СЗ 3 20 км 3/3 1000 м
[Cu Sc]
+28.0 +7.2 27 +27 +35 жарко 1015.0 1011.6
15 18.08 С 3 20 км 3/3 1000 м
[Cu Sc Ac trans]
+28.6 +7.2 26 +28 +29 жарко 1015.0 1011.6
18 18.08 СЗ 1 10 км ясно +24.8 +10.3 40 +26 +26 жарко 1016.0 1012.5 +29.4
21 18.08 штиль 0 10 км ясно +18.0 +12.0 68 +18 +18 1017.0 1013.4
00 19.08 штиль 0 10 км ясно +15.4 +11.8 79 +15 +15 1017.0 1013.4

 

Местоположение метеостанции Измаил (Одесская область, Украина): широта 45.37 долгота 28.85 высота над уровнем моря 30 м.

В архиве по умолчанию представлена погода в Измаиле за последнюю неделю. Архивные данные за месяц целиком и за предыдущие месяцы, начиная с января 2011 года, Вы можете получить, выбрав интересующий диапазон дат из раскрывающегося списка и нажав кнопку "Ввод!".


*Определитесь, кто Вы:
робот инопланетянин человек

Внимание! Время в таблицах - всемирное. Для получения местного времени необходимо прибавить поправку, которая равна 2 ч.

Смотрите также архив погоды в соседних городах и на ближайших метеорологических станциях:

Погода в Тулче (Румыния) (21 км)
Погода в Горгове (Румыния) (33 км)
Погода в Махмудиа (Румыния) (37 км)
Погода в Болграде (Одесская область, Украина) (38 км)
Погода в Галаце (Румыния) (65 км)
Погода в Журиловке (Румыния) (67 км)
Погода в Сулине (Румыния) (72 км)
Погода в Кагуле (Молдова) (74 км)
Погода в Брэиле (Румыния) (75 км)
Погода в Вилково (Одесская область, Украина) (76 км)

Пояснения к столбцам:

Ветер - указаны скорость ветра в м/с - средняя за 10 мин, порывы в срок и между сроками (в фигурных скобках) и направление, откуда дует ветер: С - северный, СВ - северо-восточный, В - восточный, ЮВ - юго-восточный, Ю - южный, ЮЗ - юго-западный, З - западный, СЗ - северо-западный.
Видимость - горизонтальная дальность видимости в метрах или километрах. При видимости от 1 до 10 км при отсутствии осадков обычно наблюдается дымка, при ухудшении видимости до 1 км и менее - туман. В сухую погоду видимость может ухудшаться дымом, пылью или мглою.
Явления - указаны атмосферные явления, наблюдавшиеся в срок или в последний час перед сроком; фигурными скобками обозначены явления, наблюдавшиеся между сроками (за 1-3 часа до срока); квадратными скобками обозначены град или гололедные отложения с указанием их диаметра в мм.
Облачность - указаны через наклонную черту общая и нижняя облачность в баллах и высота нижней границы облаков в метрах; квадратными скобками обозначены формы облаков: Ci - перистые, Cs - перисто-слоистые, Cc - перисто-кучевые, Ac - высококучевые, As - высокослоистые, Sc - слоисто-кучевые, Ns - слоисто-дождевые, Cu - кучевые, Cb - кучево-дождевые. Подробнее классификацию облаков см. в Атласе облаков (PDF).
T - Температура воздуха - температура, измеренная на высоте 2 м над землей.
Td - Температура точки росы - температура, при понижении до которой содержащийся в воздухе водяной пар достигнет насыщения.
f - Относительная влажность воздуха - влажноcть воздуха, измеренная на высоте 2 м над землей.
Te - Эффективная температура - температура, которую ощущает одетый по сезону человек в тени. Характеристика душности погоды. При расчете учитывается влияние влажности воздуха и скорости ветра на теплоощущения человека.
Tes - Эффективная температура на солнце - температура, которую ощущает человек, с поправкой на солнечный нагрев. Характеристика знойности погоды. Зависит от высоты солнца над горизонтом, облачности и скорости ветра. Ночью, в пасмурную погоду, а также при ветре 12 м/с и более поправка равна нулю.
P - Атмосферное давление - приведенное к уровню моря атмосферное давление.
Po - Атмосферное давление - измеренное на уровне метеостанции атмосферное давление.
Tmin - Минимальная температура - минимум температуры воздуха на высоте 2 м над землей.
Tmax - Максимальная температура - максимум температуры воздуха на высоте 2 м над землей.
R - Количество осадков - Количество выпавших осадков за период времени, мм. При наведении курсора мыши на число - период времени, за который выпало указанное количество осадков.
R24 - Количество осадков - Количество выпавших осадков за 24 часа, мм.
S - Снежный покров - Высота снежного покрова, см. При наведении курсора мыши на число - состояние снежного покрова и степень покрытия местности в баллах.